741  
NZUS43 KILX 271010  
HWRCRS  
 
NWR HOURLY WEATHER ROUNDUP  
NATIONAL WEATHER SERVICE LINCOLN IL  
500 AM CDT MON MAR 27 2017  
 
 
CITY SKY/WX TMP DP RH WIND PRES REMARKS
 
CHAMPAIGN PTCLDY 46 43 89 CALM 29.91F  
LAWRENCEVILLE PTCLDY 42 42 100 SE3 29.94R FOG  
PEORIA CLOUDY 49 47 93 N3 29.89F  
SPRINGFIELD CLOUDY 46 44 93 E3 29.91R FOG  

 
 
 
CITY SKY/WX TMP DP RH WIND PRES REMARKS
 
BLOOMINGTON CLOUDY 47 46 97 N3 29.91S  
DECATUR CLEAR 42 41 96 CALM 29.91F FOG  
EFFINGHAM CLOUDY 43 43 100 CALM 29.94R FOG  
FLORA CLOUDY 45 45 97 CALM 29.93R  
GALESBURG CLOUDY 45 45 100 CALM 29.89S FOG  
JACKSONVILLE CLOUDY 46 45 97 E3 29.90R FOG  
LACON CLOUDY 47 46 97 CALM 29.89F FOG  
LA SALLE CLOUDY 47 46 95 CALM 29.90F FOG  
LINCOLN CLOUDY 46 46 100 CALM 29.92R FOG  
LITCHFIELD CLOUDY 47 47 98 E8 29.89F FOG  
 
CITY SKY/WX TMP DP RH WIND PRES REMARKS
 
MACOMB FOG 46 46 100 CALM 29.92R VSB 1/2  
MATTOON CLEAR 47 47 100 S3 29.92R FOG  
MOLINE CLOUDY 48 45 89 W3 29.89F FOG  
OLNEY PTCLDY 43 43 100 CALM 29.94R FOG  
PARIS CLOUDY 46 46 100 E3 29.92F FOG  
PONTIAC CLOUDY 50 49 98 SW3 29.92F  
QUINCY CLOUDY 47 45 93 E3 29.89R  
RANTOUL CLOUDY 50 49 97 CALM 29.91F  
ROBINSON FOG 40 40 100 CALM 29.94F VSB 1/2  
TAYLORVILLE MOCLDY 45 45 100 CALM 29.92R FOG  
TERRE HAUTE CLEAR 45 43 93 S3 29.93F FOG  

 
 
 
CITY SKY/WX TMP DP RH WIND PRES REMARKS
 
BURLINGTON CLOUDY 47 47 100 CALM 29.89S FOG  
CHICAGO CLOUDY 50 48 93 NW6 29.89R FOG  
DES MOINES DRIZZLE 44 43 96 N5 29.92R  
EVANSVILLE CLOUDY 49 46 90 CALM 29.94S  
INDIANAPOLIS PTCLDY 48 46 93 CALM 29.93F  
KANSAS CITY CLOUDY 46 45 96 N7 29.85R  
MILWAUKEE CLOUDY 43 39 86 W6 29.89S  
ST LOUIS CLOUDY 52 48 86 E6 29.85F  

 
 
 
 
CLICK HERE TO GO TO PREVIOUS BULLETINS.

The Nexlab IL Page Main Text Page